Wind_Speed
4 3 2 1 2 3 2 2 6 6 5 5 6 7 8 8 8 8 8 9 9 9 10 10 10 9 9 10 9 9 9 10 10 10 10 9 9 9 9 10 11 11
9 8 5 4 4 4 4 4 5 5 3 4 5 7 8 8 7 8 8 9 9 9 10 10 11 11 10 10 10 10 10 10 10 10 9 9 9 10 11 12 13 14
14 12 9 6 4 5 5 6 7 5 1 3 5 7 8 8 7 7 7 8 8 8 9 9 10 10 9 9 8 8 7 7 9 10 9 10 11 12 13 14 15 14
16 16 16 14 9 6 4 4 5 4 1 3 5 7 8 8 7 6 6 7 7 7 7 8 8 9 8 8 7 7 7 7 9 10 11 12 13 12 13 14 14 13
19 21 22 19 14 7 4 2 1 2 2 4 6 7 8 8 8 7 6 6 6 6 7 7 7 8 8 8 8 7 8 9 10 11 11 12 13 12 12 12 11 11
20 24 26 19 13 14 13 9 8 6 4 5 5 6 7 7 7 7 7 6 7 7 7 7 7 8 8 8 8 8 8 9 10 10 10 10 10 10 10 9 9 8
19 23 25 19 13 15 15 16 14 9 7 7 6 5 5 5 6 6 7 7 6 7 6 6 7 7 7 8 8 8 8 8 8 8 8 8 8 7 7 7 7 6
17 20 22 18 14 13 17 19 16 11 10 9 7 7 6 6 6 6 7 7 7 7 7 6 6 6 7 7 8 9 8 8 8 8 7 7 6 6 6 6 6 6
15 18 18 15 14 16 20 21 17 12 12 11 10 10 9 8 8 8 8 9 9 9 8 7 7 6 6 7 8 8 8 7 7 7 6 6 5 4 4 4 4 4
14 16 16 16 17 20 23 24 20 15 14 14 13 13 12 11 11 10 10 10 10 10 9 9 8 7 7 7 7 7 7 7 6 4 4 3 3 2 2 2 2 3
12 13 15 19 20 19 21 24 23 19 17 17 17 16 15 15 14 12 12 12 11 11 10 9 9 8 8 7 8 8 7 7 6 4 2 1 0 2 3 3 4 4
8 10 13 18 18 16 16 19 23 23 20 18 19 19 19 18 17 16 14 13 12 11 10 9 8 8 8 8 8 8 8 8 7 5 4 3 4 4 5 6 7 7
8 10 12 15 16 16 16 18 22 25 23 20 20 22 23 22 21 20 18 16 15 13 12 11 10 9 9 10 10 10 9 9 8 8 7 6 6 7 8 9 10 10
10 11 13 14 16 17 18 19 23 26 25 23 22 23 25 25 25 23 21 19 18 16 15 14 13 12 12 12 12 12 10 10 10 10 10 10 9 8 9 10 12 12
7 10 14 16 18 21 22 22 25 28 26 24 23 22 23 25 27 26 23 21 20 19 19 18 17 17 16 14 15 14 12 10 9 10 12 12 12 11 12 13 14 14
4 7 10 14 16 20 21 21 24 29 27 22 20 20 21 24 26 26 24 22 20 20 21 22 22 22 20 18 18 19 16 13 12 14 14 13 13 14 15 14 14 14
2 4 8 10 12 14 16 17 20 26 28 25 22 21 21 23 25 27 27 27 25 25 26 25 24 23 23 22 20 17 15 15 17 18 17 16 15 15 14 13 14 15
2 4 6 8 9 11 12 14 17 21 25 26 24 21 20 22 25 27 29 32 34 35 32 27 24 22 21 21 20 18 17 17 19 19 17 16 14 14 14 15 16 17
3 4 5 7 9 9 10 11 14 18 20 21 20 18 19 22 22 22 25 29 34 36 33 28 25 23 18 17 18 18 18 18 18 17 16 14 14 14 15 15 15 14
5 6 7 8 9 10 10 11 13 16 17 18 19 19 20 20 18 19 20 22 24 26 25 23 22 21 18 15 14 14 16 16 14 13 12 12 12 11 11 10 9 9
6 7 8 9 10 12 13 14 16 18 20 21 22 22 21 18 17 18 19 18 17 17 17 18 18 19 17 15 13 13 14 13 11 9 9 8 7 7 6 5 5 5
6 7 8 8 10 13 16 18 19 20 22 22 21 21 20 18 18 18 17 15 14 14 15 16 17 17 16 15 14 14 13 11 9 8 6 6 5 4 3 3 4 4
7 7 8 8 8 10 13 16 18 18 19 19 20 21 20 19 18 18 16 15 14 15 16 17 18 17 16 16 15 14 12 10 8 6 5 5 4 3 4 5 6 6
10 9 9 9 8 8 8 11 13 15 16 18 19 20 19 17 17 16 15 16 16 16 17 17 17 17 17 16 15 13 11 9 7 6 5 4 4 5 6 7 8 8
13 13 12 11 11 9 7 7 9 11 12 14 15 14 14 14 13 13 14 15 15 16 16 16 17 17 17 16 14 12 10 8 7 6 5 5 5 7 7 8 9 9
14 14 15 15 13 11 10 9 9 9 10 10 11 11 11 12 11 12 13 14 14 16 16 17 18 18 17 15 14 12 10 8 7 6 5 5 6 6 7 7 7 7
Wind_Direction
216 208 187 136 109 120 124 58 45 41 53 84 109 123 127 126 123 120 117 116 118 118 116 117 119 124 131 136 139 142 141 143 145 140 134 132 127 120 120 121 118 115
209 208 205 181 156 156 153 110 69 48 66 110 128 134 134 133 129 125 123 121 122 123 121 119 118 118 121 123 124 125 124 127 130 128 124 124 122 120 120 118 114 112
204 202 195 186 184 174 157 127 92 65 64 144 145 144 140 141 139 135 133 131 132 133 129 125 120 117 118 118 120 120 122 127 128 124 121 121 120 119 119 116 112 110
206 204 198 187 175 160 139 109 97 91 173 189 163 151 147 146 145 146 145 142 143 143 138 131 123 119 117 115 117 119 124 130 126 121 121 121 118 117 116 114 112 111
217 218 213 193 176 192 259 301 187 162 198 207 185 161 154 154 152 154 155 152 152 151 147 140 129 123 119 113 113 117 121 124 120 118 119 117 115 115 113 111 110 110
232 230 221 206 209 238 250 237 212 203 196 208 211 186 168 163 162 164 164 160 158 157 152 146 137 129 122 115 115 118 119 119 116 112 110 106 105 105 104 104 103 99
250 238 226 228 248 244 226 209 205 205 196 202 220 217 197 181 178 174 170 169 167 166 162 153 145 138 132 123 120 119 115 111 106 102 98 91 87 85 83 86 83 78
253 238 232 246 257 229 205 203 208 209 202 202 212 221 217 203 197 188 179 178 176 175 174 167 158 150 143 135 129 124 114 106 99 94 92 85 80 78 71 68 65 60
241 237 242 249 239 216 206 209 214 214 209 208 209 217 224 216 208 204 194 189 186 183 182 178 172 164 154 147 141 134 124 115 106 96 91 84 79 76 70 65 58 49
237 238 237 223 211 208 210 216 222 220 213 213 211 213 222 221 216 214 209 203 198 194 190 187 184 178 169 162 156 150 141 131 121 111 101 84 65 46 37 32 18 8
238 234 219 208 208 214 220 225 230 230 224 220 216 214 218 219 218 217 216 214 211 207 205 200 194 191 184 176 171 166 158 148 142 140 144 151 315 326 322 313 313 314
231 229 217 214 220 231 238 236 233 232 234 231 226 222 220 218 217 215 217 218 218 219 219 216 213 209 202 195 189 184 176 171 175 186 199 229 254 271 283 283 284 286
236 233 229 228 232 242 250 244 234 232 237 241 238 232 226 222 220 217 216 219 220 222 222 224 227 223 217 214 207 202 201 202 210 221 228 239 257 269 272 269 268 268
251 244 241 241 244 251 255 251 241 236 238 245 248 242 235 230 228 226 223 222 223 225 226 227 229 228 224 222 217 215 221 228 234 245 254 258 265 274 278 274 268 266
267 255 250 251 252 255 258 256 246 238 238 247 252 251 247 241 236 233 229 228 230 232 234 234 235 234 227 224 233 239 239 238 253 277 282 272 264 272 287 287 277 273
272 262 256 257 258 258 260 257 245 234 237 247 251 253 254 247 241 237 233 232 234 237 239 238 240 241 236 239 258 262 248 248 281 302 298 285 278 282 290 290 280 277
245 258 258 258 261 265 267 263 248 236 239 248 253 251 245 239 241 245 241 236 237 240 245 248 251 252 247 247 260 261 244 253 284 296 294 293 293 290 289 286 281 280
244 256 261 261 264 271 271 264 254 244 242 247 250 247 242 242 245 247 244 240 238 240 246 255 257 252 247 246 249 246 241 254 274 282 286 292 290 284 285 285 283 282
282 275 272 270 268 269 267 256 249 245 243 244 244 243 248 251 246 239 239 239 237 237 243 250 247 239 242 249 244 238 242 255 267 272 276 281 281 282 285 284 282 280
283 282 281 281 277 271 264 253 245 243 240 239 238 239 244 245 236 230 233 233 229 231 235 237 234 233 240 243 233 232 246 256 260 263 267 273 277 281 281 280 281 282
284 279 275 275 274 269 263 258 254 252 248 244 243 242 241 237 230 228 228 222 217 219 222 223 225 228 231 229 227 235 242 243 244 250 259 266 271 274 278 286 297 300
305 295 285 277 269 261 257 256 257 258 256 252 246 241 237 230 225 221 217 214 213 213 214 215 216 217 219 221 223 223 220 220 231 241 247 253 261 276 296 313 323 325
290 297 297 292 280 268 260 255 253 253 254 251 243 239 237 229 220 214 208 207 209 209 205 204 205 207 209 208 205 202 205 213 223 229 238 253 270 294 313 322 329 331
265 271 281 286 285 281 269 253 245 245 248 248 243 241 240 232 221 213 205 201 202 203 199 198 199 200 197 194 192 196 204 211 212 221 244 264 284 301 313 322 325 326
263 260 262 269 275 276 265 245 236 233 235 237 234 227 224 220 211 203 197 194 194 193 191 190 191 189 188 189 192 197 205 210 213 225 245 266 289 303 314 322 324 325
262 258 255 256 260 261 255 241 231 224 220 222 220 211 204 203 197 191 190 190 190 187 185 186 187 186 186 188 193 200 207 211 214 222 238 265 291 307 316 321 323 326
Height
1538 1537 1537 1537 1538 1539 1540 1541 1542 1543 1544 1545 1545 1546 1547 1549 1550 1551 1551 1552 1552 1553 1553 1553 1554 1554 1555 1556 1557 1557 1558 1558 1559 1559 1560 1561 1561 1561 1562 1563 1563 1563
1535 1536 1537 1537 1537 1538 1539 1541 1542 1543 1544 1545 1546 1547 1548 1549 1550 1551 1552 1552 1553 1554 1554 1554 1554 1555 1556 1557 1557 1558 1559 1559 1560 1560 1561 1561 1562 1562 1563 1563 1564 1564
1534 1535 1536 1538 1539 1539 1540 1540 1541 1543 1545 1546 1546 1547 1548 1549 1550 1551 1552 1553 1554 1554 1555 1555 1555 1556 1557 1557 1558 1559 1559 1560 1561 1561 1562 1562 1563 1563 1564 1564 1564 1565
1534 1534 1533 1535 1538 1540 1541 1540 1541 1543 1546 1546 1547 1547 1548 1549 1550 1552 1553 1553 1554 1555 1555 1556 1556 1557 1557 1558 1559 1559 1560 1561 1561 1562 1562 1563 1563 1564 1564 1565 1565 1566
1531 1531 1531 1532 1536 1539 1542 1543 1543 1545 1546 1547 1547 1547 1548 1549 1550 1551 1553 1553 1554 1555 1556 1556 1557 1557 1558 1558 1559 1560 1560 1561 1562 1562 1563 1564 1564 1565 1565 1565 1566 1566
1528 1529 1530 1533 1536 1538 1541 1543 1545 1545 1546 1547 1548 1548 1549 1549 1550 1551 1552 1554 1554 1555 1556 1556 1557 1558 1558 1559 1559 1560 1561 1562 1563 1563 1564 1565 1565 1565 1566 1566 1567 1567
1527 1528 1531 1534 1536 1537 1539 1542 1544 1544 1545 1547 1548 1549 1550 1550 1551 1552 1553 1554 1554 1555 1556 1557 1557 1558 1559 1559 1560 1561 1562 1563 1563 1564 1565 1565 1566 1566 1566 1567 1567 1567
1526 1528 1531 1533 1535 1536 1538 1539 1542 1543 1544 1546 1547 1549 1550 1550 1551 1552 1553 1554 1554 1555 1556 1557 1558 1558 1559 1559 1560 1561 1562 1563 1563 1564 1565 1566 1566 1566 1567 1567 1567 1567
1526 1529 1531 1532 1533 1534 1536 1537 1540 1542 1543 1545 1546 1548 1549 1550 1551 1552 1552 1553 1554 1555 1556 1557 1557 1558 1559 1559 1560 1560 1561 1562 1563 1564 1564 1565 1566 1566 1566 1566 1567 1567
1526 1528 1528 1528 1529 1530 1533 1535 1538 1540 1542 1543 1545 1546 1548 1549 1550 1551 1552 1553 1553 1554 1555 1556 1557 1558 1558 1559 1559 1560 1560 1561 1562 1563 1563 1564 1565 1565 1566 1566 1566 1566
1524 1525 1525 1525 1527 1529 1532 1534 1536 1539 1540 1541 1543 1545 1546 1547 1548 1549 1551 1552 1553 1553 1554 1555 1556 1557 1558 1558 1559 1559 1560 1560 1561 1562 1563 1563 1564 1564 1565 1565 1565 1565
1523 1523 1524 1525 1527 1529 1531 1533 1535 1537 1538 1540 1541 1543 1544 1545 1546 1548 1549 1551 1552 1552 1553 1554 1555 1556 1557 1557 1558 1558 1559 1559 1560 1561 1562 1562 1562 1563 1563 1564 1564 1564
1522 1523 1524 1525 1527 1528 1530 1531 1533 1535 1536 1537 1539 1540 1542 1543 1544 1546 1547 1549 1550 1551 1552 1553 1554 1555 1556 1557 1557 1558 1558 1559 1559 1560 1561 1561 1561 1561 1562 1562 1562 1563
1520 1522 1523 1524 1526 1528 1529 1529 1530 1532 1533 1535 1537 1538 1540 1541 1542 1543 1545 1546 1548 1549 1550 1551 1552 1553 1554 1555 1556 1556 1557 1558 1559 1560 1560 1560 1560 1560 1560 1561 1561 1561
1519 1520 1521 1523 1524 1526 1527 1528 1528 1529 1531 1533 1535 1537 1538 1539 1540 1541 1542 1544 1545 1547 1548 1549 1550 1552 1553 1554 1554 1554 1556 1557 1557 1558 1559 1559 1559 1559 1559 1559 1559 1559
1518 1519 1520 1521 1522 1523 1524 1525 1526 1527 1529 1531 1533 1534 1535 1537 1538 1539 1540 1541 1543 1544 1545 1546 1548 1550 1551 1552 1552 1553 1555 1555 1555 1556 1557 1557 1557 1557 1557 1556 1556 1556
1517 1517 1518 1519 1520 1521 1522 1522 1523 1525 1527 1528 1530 1531 1532 1534 1535 1536 1537 1538 1540 1542 1542 1544 1546 1548 1549 1550 1551 1552 1553 1553 1554 1554 1555 1555 1555 1555 1554 1554 1554 1554
1516 1516 1517 1518 1518 1519 1520 1520 1521 1523 1524 1525 1526 1528 1529 1530 1532 1533 1535 1536 1538 1539 1540 1541 1543 1545 1546 1547 1549 1549 1550 1551 1552 1552 1552 1553 1553 1552 1552 1552 1551 1551
1515 1515 1516 1516 1517 1517 1518 1519 1519 1520 1522 1523 1524 1526 1527 1527 1528 1530 1532 1532 1533 1536 1537 1538 1540 1542 1544 1545 1546 1547 1548 1549 1550 1550 1550 1550 1550 1550 1550 1549 1549 1548
1514 1514 1514 1515 1515 1516 1516 1517 1518 1519 1520 1521 1522 1523 1524 1525 1526 1527 1528 1529 1530 1532 1534 1535 1537 1540 1542 1543 1543 1545 1546 1547 1547 1548 1548 1548 1548 1548 1547 1547 1547 1546
1514 1514 1514 1514 1514 1514 1515 1516 1517 1518 1519 1520 1521 1522 1523 1523 1523 1524 1525 1526 1528 1529 1530 1532 1534 1537 1539 1539 1541 1542 1544 1545 1545 1546 1546 1546 1546 1546 1546 1545 1545 1545
1514 1514 1513 1513 1513 1513 1514 1514 1515 1517 1518 1519 1520 1521 1521 1520 1521 1522 1523 1524 1525 1526 1528 1530 1532 1534 1535 1537 1538 1540 1541 1542 1543 1544 1544 1544 1544 1544 1544 1544 1544 1543
1513 1513 1513 1513 1512 1512 1512 1512 1513 1515 1515 1516 1517 1518 1518 1517 1518 1519 1520 1521 1523 1524 1526 1527 1529 1531 1533 1535 1536 1538 1539 1540 1541 1542 1542 1543 1543 1543 1543 1542 1542 1542
1512 1512 1512 1512 1512 1511 1510 1510 1511 1512 1513 1513 1514 1515 1517 1517 1517 1518 1518 1519 1521 1523 1523 1525 1527 1529 1531 1533 1535 1536 1537 1538 1539 1540 1540 1541 1541 1541 1541 1541 1541 1541
1511 1511 1510 1510 1511 1510 1510 1509 1509 1510 1511 1512 1512 1514 1515 1516 1516 1517 1517 1518 1519 1521 1522 1524 1526 1528 1530 1532 1533 1534 1535 1536 1537 1538 1538 1539 1539 1539 1539 1540 1540 1540
1509 1509 1509 1509 1509 1509 1509 1509 1508 1508 1509 1510 1512 1513 1514 1514 1515 1515 1516 1518 1519 1520 1522 1523 1525 1526 1528 1530 1531 1532 1533 1534 1535 1536 1537 1537 1537 1538 1538 1538 1538 1538